Location: Grudziądz
(53.4833°N, 18.7667°E)
Time: 04:25:03
(UTC+02:00)

ISS - Visible Passes

Search period start: 26 September 2018 00:00
Search period end: 06 October 2018 00:00
Orbit: 403 x 408 km, 51.6° (Epoch: 26 September)

Date Brightness Start Highest point End Pass type
(mag) Time Alt. Az. Time Alt. Az. Time Alt. Az.
26 Sep -3.3 20:12:47 10° SW 20:15:54 39° SSE 20:16:23 37° SE visible
26 Sep -0.6 21:48:55 10° W 21:49:04 11° W 21:49:04 11° W visible
27 Sep -2.7 19:21:11 10° SW 19:24:07 30° SSE 19:26:35 13° E visible
27 Sep -2.6 20:57:03 10° WSW 20:59:16 37° WSW 20:59:16 37° WSW visible
28 Sep -3.6 20:05:14 10° WSW 20:08:27 54° S 20:09:23 38° ESE visible
28 Sep -0.8 21:41:33 10° W 21:42:03 14° W 21:42:03 14° W visible
29 Sep -3.2 19:13:26 10° SW 19:16:37 44° SSE 19:19:26 12° E visible
29 Sep -2.9 20:49:38 10° W 20:52:07 44° WSW 20:52:07 44° WSW visible
30 Sep -3.7 19:57:45 10° WSW 20:01:01 63° S 20:02:08 36° ESE visible
30 Sep -0.9 21:34:09 10° W 21:34:48 15° W 21:34:48 15° W visible
01 Oct -3.5 19:05:51 10° WSW 19:09:06 57° S 19:12:07 12° E visible
01 Oct -3.0 20:42:12 10° W 20:44:47 45° WSW 20:44:47 45° WSW visible
02 Oct -3.7 19:50:15 10° W 19:53:32 62° S 19:54:46 33° ESE visible
02 Oct -0.9 21:26:46 10° W 21:27:26 14° W 21:27:26 14° W visible
03 Oct -3.6 18:58:18 10° W 19:01:36 64° S 19:04:44 11° E visible
03 Oct -2.7 20:34:45 10° W 20:37:24 38° SW 20:37:24 38° SW visible
04 Oct -3.4 19:42:45 10° W 19:45:58 52° SSW 19:47:23 28° SE visible
04 Oct -0.8 21:19:32 10° W 21:20:03 13° WSW 21:20:03 13° WSW visible
05 Oct -3.5 18:50:45 10° W 18:54:02 60° S 18:57:17 10° ESE visible
05 Oct -2.3 20:27:19 10° W 20:30:03 28° SSW 20:30:03 28° SSW visible
